sat.trackr.live / text

‹ back to catalog

UNKNOWN

NORAD 81329

UNKNOWN UNKNOWN UNKNOWN

§ Identity

Operator
Country
Launch date
Launch site
Launch vehicle
Mass (kg)
RCS (m²)

External: N2YO · Heavens-Above

§ Orbital elements

Epoch: 2026-08-20T09:37:04.063008Z

Period
108.83 min
Inclination
65.8181°
Eccentricity
0.0840945
Mean motion
13.23125944 rev/d
Perigee alt
537.8 km
Apogee alt
1,807.8 km
Semi-major
7,550.9 km
B*
3.8338e-4
RAAN
276.0898°
Arg perigee
276.9321°
Mean anomaly
73.6873°
Rev number
61,123

§ Raw data

UNKNOWN1 81329U          26232.40074147  .00001066  00000+0  38338-3 0  99952 81329  65.8181 276.0898 0840945 276.9321  73.6873 13.23125944611235

JSON: /api/v1/satellites/81329 · /tle

For live sub-satellite position, see the globe view (requires WebGL).

§ Visibility from observer

Set your observer location to see the next 7 days of passes ≥ 10°. The values pass through the URL so the page stays shareable.

No JS? Fill the form by hand. The geolocation button needs JavaScript.